User: anonymous   Login
Location: Caltech
(34.1382°N, 118.1253°W)
Time: 14:03:43
(UTC-08:00)
Language:

SEDSat Delta rocket - Orbit

View from above orbital plane
View from above orbital plane
View from above satellite
View from above satellite

Ground track
Ground track

The orbit data is extracted from the following two-line orbital elements,

1 25510U 98061C   17326.48172972  .00000315  00000-0  45832-4 0  9991
2 25510  31.4348 312.3350 0327864  44.8816  98.1004 14.37279350   100
Epoch (UTC): 22 November 2017 11:33:41
Eccentricity: 0.0327864
inclination: 31.4348°
perigee height: 533 km
apogee height: 1002 km
right ascension of ascending node: 312.3350°
argument of perigee: 44.8816°
revolutions per day: 14.37279350
mean anomaly at epoch: 98.1004°
orbit number at epoch: 10

The dashed part of the orbit path shows where the satellite is in the earth's shadow,  

DLR